目前日期文章:201702 (123)

瀏覽方式: 標題列表 簡短摘要
發表時間 文章標題 人氣 留言
2017-02-28 傳明酸集效淨白持久粉餅SPF 30★★ - 4312【熱銷全球】 (0) (0)
2017-02-28 POLO 三色購物托特包(藍.特大)【浪漫情人節】 (1) (0)
2017-02-28 PHILIPS飛利浦-數位無線子母無線電話機(D1202B)-(D1202)【超值好康】 (0) (0)
2017-02-28 FIB Gym - 143932【團購評價】 (31) (0)
2017-02-28 DF Flor Eden - 雅典娜牛皮緹花紋手提肩背包-共2色【真心勸敗】 (0) (0)
2017-02-25 Suunto Ambit3 Sport HR進階多項運動GPS腕錶-黑(Ambit3 Sport HR)【搶占】 (2) (0)
2017-02-25 兒童護耳護頸套頭連帽【超人氣商品】 (0) (0)
2017-02-25 【THERMOS膳魔師】保溫-保鮮食物罐 1入 - 145002【真心勸敗】 (0) (0)
2017-02-25 YADAH淨白守護完美特惠組【嚴選】 (0) (0)
2017-02-25 MICHAEL KORS 皮革鎖頭撞色手提-斜背包(大-棕)【禮物特輯】 (0) (0)
2017-02-24 NIKON AF-S DX 55-300mm F4.5-5.6G ED VR(55-300mm (平輸))【情報】 (0) (0)
2017-02-24 超質感經典懶人濾茶耐熱玻璃隨行保溫杯 1入起 - 147749【團購評價】 (0) (0)
2017-02-24 TONYMOLY 魔法森林 兔兔甜蜜護唇膏-唇彩-唇蜜 2g #09棉花糖【分享】 (2) (0)
2017-02-24 T-SING 3D立體炫光眼影粉【藍綠 no5】【推薦】 (0) (0)
2017-02-24 Clarks Uncorner Plain英倫防水厚底氣休閒男鞋-黑【超值好康】 (2) (0)
2017-02-23 PAUL JOE 卸妝潔膚雙星組【優惠】 (0) (0)
2017-02-23 盲人按摩 - 144884【團購心得】 (0) (0)
2017-02-23 HP LASERJET PRO MFP M26A雷射事務機(T0L49A)【情報】 (91) (0)
2017-02-23 lingling日系 小尺碼-荷邊蕾絲蝶結細肩二件式睡衣組(輕甜嫩桔)A822-02【嚴選】 (0) (0)
2017-02-23 Bravo Nail美甲美睫概念館 - 146511【超值好康】 (4) (0)
2017-02-22 CBINC 86mm 夾扣式鏡頭蓋 - 附繩(86mm)【搶占】 (0) (0)
2017-02-22 台中-天月人文休閒汽車旅館 - 142935【團購評價】 (1) (0)
2017-02-22 卡特夫人Spa美療館 - 133123【真心勸敗】 (32) (0)
2017-02-22 【YoDa】DIY泡棉防撞條200cm【超人氣商品】 (0) (0)
2017-02-22 AKIII CLASSIC 韓國潮流慢跑鞋【FLORIDA-M】【真心勸敗】 (4) (0)
2017-02-21 馥臨港式火鍋(市民店) - 148388【真心勸敗】 (0) (0)
2017-02-21 【健身大師】時尚名模音樂韻律板(99段魔幻紫)(HY8853_PU)【評價】 (0) (0)
2017-02-21 ○糊塗鞋匠○ 優質鞋材 N46 氣眼手敲安裝工具-3組【超值好康】 (1) (0)
2017-02-21 ○糊塗鞋匠○ 優質鞋材 N149 台灣製造 台製4孔1mm圓沖排斬 -支【網購懶人包】 (0) (0)
2017-02-21 虎牌5公升蒸氣不外漏真空熱水瓶(PIE-A50R)【情報】 (2) (0)
2017-02-20 【歐帝兒 OMDI】優雅知性手提包 - 紅色【超值好康】 (0) (0)
2017-02-20 雙面抗寒-羊羔絨x法蘭絨暖暖被 1入起 - 146786【團購評價】 (0) (0)
2017-02-20 【龍吟軒】10mm白硨磲瑪瑙轉運手珠【網購懶人包】 (0) (0)
2017-02-20 【歐帝兒 OMDI】簡約拉鍊肩背包(2色)【超值好康】 (0) (0)
2017-02-20 【2M】Innowatt蘋果認證Lightning 8Pin-黑(7740430)【搶占】 (0) (0)
2017-02-19 MAKE UP FOR EVER ULTRA HD超進化無瑕遮瑕膏(7ml)【選購】 (0) (0)
2017-02-19 琦麗美妍館 - 145142【真心勸敗】 (1) (0)
2017-02-19 台灣製高級不鏽鋼方形地板排水濾網(附拉桿)【團購心得】 (0) (0)
2017-02-19 博覽家台灣出國專用插座(韓、越、全歐洲)(TA-59)【情報】 (0) (0)
2017-02-19 厚切法式櫻桃三角鴨胸 4片起 - 148313【團購心得】 (0) (0)
2017-02-18 三功能強效純白增壓蓮蓬頭【團購評價】 (0) (0)
2017-02-18 小牛津-帽T熊故事機+贈專用迷彩防摔衣+幼幼軟質積木+小牛津趣味百格貼【團購心得】 (2) (0)
2017-02-18 LANCOME 蘭蔻 超水妍舒緩保濕精華10mlx5【優惠】 (0) (0)
2017-02-18 超能緊俏撫紋奇肌霜 - 51【DIY新手入門】 (0) (0)
2017-02-18 LUXA2 Urban iPad Mini-Retina 真皮皮套-紅(LHA0097-C)【搶占】 (0) (0)
2017-02-16 高音質鋁合金LED藍芽無線音箱【團購心得】 (0) (0)
2017-02-16 【米蘭精品】長假髮整頂假髮優質明星同款齊瀏海【網購懶人包】 (0) (0)
2017-02-16 So Beauty Hair Salon (松山二店) - 143606【團購評價】 (1) (0)
2017-02-16 itoast愛吐司-年節限定手工牛軋糖(綜合口味)禮盒組(400g)【團購評價】 (0) (0)
2017-02-16 Dunhill 尋歡男性淡香水(150ml)-送品牌香水【優惠】 (0) (0)
1 23